sat.trackr.live / text

‹ back to catalog

HULIANWANG DIGUI-85

NORAD 65820 · 2025-220D

PAYLOAD ACTIVE UNKNOWN

§ Identity

Operator
Country
PRC
Launch date
2025-09-27
Launch site
TAISC
Launch vehicle
Mass (kg)
RCS (m²)

External: N2YO · Heavens-Above · Gunter

§ Orbital elements

Epoch: 2026-05-25T04:11:48.259104Z

Period
108.73 min
Inclination
86.5005°
Eccentricity
0.0001443
Mean motion
13.24405036 rev/d
Perigee alt
1,166.9 km
Apogee alt
1,169.0 km
Semi-major
7,546.1 km
B*
7.5515e-5
RAAN
51.6597°
Arg perigee
62.8336°
Mean anomaly
297.2945°
Rev number
3,187

§ Raw data

HULIANWANG DIGUI-851 65820U 25220D   26145.17486411  .00000047  00000+0  75515-4 0  99992 65820  86.5005  51.6597 0001443  62.8336 297.2945 13.24405036 31875

JSON: /api/v1/satellites/65820 · /tle

For live sub-satellite position, see the globe view (requires WebGL).

§ Visibility from observer

Set your observer location to see the next 7 days of passes ≥ 10°. The values pass through the URL so the page stays shareable.

No JS? Fill the form by hand. The geolocation button needs JavaScript.